Location: Rounton
(54.4000°N, 1.3500°W)
Time: 03:37:13
(UTC+00:00)

A-11 Canister half - Pass Details

Date: 02 December 2021
Orbit: 1524 x 1684 km, 47.3° (Epoch: 17 January)

Event Time Altitude Azimuth Distance (km) Brightness Sun altitude
Exits shadow 04:02:53 51° 197° (SSW) 2,010 9.3 -33.9°
Maximum altitude 04:04:23 55° 168° (SSE) 1,932 9.4 -33.7°
Drops below altitude 10° 04:13:54 10° 95° (E) 3,858 11.9 -32.3°
Sets 04:17:03 0° 91° (E) 4,823 12.7 -31.8°
